Location: McCall
(45.0000°N, 116.0000°W)
Time: 00:18:52
(UTC-06:00)

Saudisat 1A - Visible Passes

Search period start: 24 March 2017 00:00
Search period end: 03 April 2017 00:00
Orbit: 571 x 622 km, 64.6° (Epoch: 22 March)

Date Brightness Start Highest point End Pass type
(mag) Time Alt. Az. Time Alt. Az. Time Alt. Az.
24 Mar 11.2 05:45:22 10° ESE 05:45:55 10° ESE 05:46:28 10° E visible
25 Mar 10.6 05:52:31 10° SSE 05:55:37 18° ESE 05:58:43 10° ENE visible
26 Mar 9.7 06:01:26 10° S 06:05:23 31° ESE 06:09:23 10° NE visible
27 Mar 8.7 06:10:56 10° SSW 06:15:16 54° ESE 06:19:41 10° NE visible
28 Mar 10.8 04:44:53 10° SE 04:46:29 12° ESE 04:48:06 10° E visible
28 Mar 8.0 06:21:17 13° SW 06:25:14 88° NW 06:29:47 10° NE visible
29 Mar 10.1 04:54:50 18° SE 04:56:12 21° ESE 04:59:33 10° ENE visible
29 Mar 8.3 06:31:30 14° SW 06:35:18 53° NW 06:39:44 10° NNE visible
30 Mar 9.3 05:04:57 31° SE 05:05:59 35° ESE 05:10:07 10° NE visible
30 Mar 9.0 06:41:37 11° WSW 06:45:26 33° NW 06:49:34 10° NNE visible
31 Mar 8.4 05:14:59 49° S 05:15:53 61° ESE 05:20:21 10° NE visible
31 Mar 9.6 06:52:07 10° W 06:55:42 23° NW 06:59:17 10° NNE visible
01 Apr 10.8 03:48:17 12° E 03:48:17 12° E 03:49:14 10° E visible
01 Apr 8.0 05:24:56 55° SW 05:25:52 79° NW 05:30:24 10° NNE visible
02 Apr 10.3 03:58:10 20° E 03:58:10 20° E 04:00:21 10° ENE visible
02 Apr 8.5 05:34:49 38° W 05:35:57 47° NW 05:40:20 10° NNE visible
